Find Starlink 30810

NORAD ID: 58178 Int'l Des: 2023-167 Owner: SPXS Country: US Constellation: starlink operational
LEOCIRCULAR

Live-Position

3D-Globus wird geladen...

Über Starlink 30810

Beschreibung wird geladen...

Nächste Überflüge

Passes for default location (London). Set your location on the main map for personalized predictions.

Höhenverlauf

Loading altitude history...

Zweizeiliger Elementsatz

1 58178U 23167D 26125.20860189 .00003649 00000-0 14205-3 0 9995
2 58178 43.0026 183.8150 0000897 289.2195 70.8560 15.27582062139638
Epoch: 5. Mai 2026 • Age: 8 hours

Aktueller Status

Höhe 485.9 km
Geschwindigkeit 7.63 km/s
Subsatellitenpunkt 39.84°N, 176.02°W
Startdatum 30. Okt. 2023
Alter 2.5 years
Typ internet

Technische Details

Klassifizierung Payload
Masse 730.00 kg
Trockenmasse 700.00 kg
Gesamtmasse 730.00 kg
Länge 0.30 m
Durchmesser 4.10 m
Spannweite 29.00 m
Form Box + pan
Hersteller SPXS
Bus-Typ Starlink V2M
Phasenstatus In Orbit
Besitzer/Staat SPXS/US

Most Searched